Location: Julian California
(33.0790°N, 116.6010°W)
Time: 20:37:43
(UTC-07:00)

SJ-11-01 - Pass Details

Date: 14 June 2018
Orbit: 684 x 701 km, 98.1° (Epoch: 18 August)

Event Time Altitude Azimuth Distance (km) Brightness Sun altitude
Exits shadow 20:34:55 - 156° (SSE) 2,593 6.7 -7.7°
Reaches altitude 10° 20:36:01 10° 154° (SSE) 2,153 6.3 -7.9°
Maximum altitude 20:40:39 60° 75° (ENE) 803 4.4 -8.7°
Drops below altitude 10° 20:45:20 10° 356° (N) 2,167 7.4 -9.5°
Sets 20:47:36 0° 353° (N) 3,088 8.3 -9.8°
